STARLINK-1265, 45406

Orbit data source: Space-Track

STARLINK-1265, 45406 is a payload satellite owned by SpaceX/Seattle (US) in LEO that was launched on Wed, 18 Mar 2020 UTC via an FALCON 9 launch vehicle from the Air Force Eastern Test Range (AFETR). Payload-class satellites include a variety of spacecraft equipped with specific instruments for various scientific and technological missions. These include communications satellites like Starlink; space stations such as the ISS; scientific satellites like the Hubble; Earth observation satellites from companies like Planet Labs, Umbra, and HawkEye 360; GPS; miniature CubeSats for education and research; and military/defense satellites.

Loading next visibility...
Identifier
45406, 2020-019AY
Orbit
LEO
Last TLE update
20 hours ago
Origin
Manufacturer
SpaceX/Seattle
Mission
Operational Commercial Communications
Bus & Motor
STARLINK, Unknown motor
Mass
260 kg wet, ~248 kg dry
Launch date (UTC)
2020-03-18 (5 years ago)
Launch vehicle
FALCON 9
Launch site
Air Force Eastern Test Range (AFETR)
Object type
Payload
Rocket body
Debris
Shape & HBR
Box + 1 Pan, 8.86 m
Radar Cross Section
13.562 m², Large (>1 m²)

Expand to show TLE details & history

TLE from 20 hours ago
0 STARLINK-1265
1 45406U 20019AY  25181.25958749 -.00000700  00000-0 -28136-4 0  9990
2 45406  53.0537 189.8214 0001053  75.1578 284.9528 15.06391919291812
Epoch: 2025-06-30T06:13Z
TLE epoch observation values (Epoch: 2025-06-30T06:13:48.359Z)
Latitude
0.00003°
Longitude
177.79797°
Altitude
547.927 km
Speed
7.589 km/s
True Right ascension
12h 39m 17s
True Declination
0° 00' 00"
Sunlit
Object was in daylight at epoch
Visualization orbit readout
Latitude
-38.52965°
Longitude
30.58696°
Altitude
560.446 km
Speed
7.581 km/s
Apparent Right ascension
02h 25m 53s
Apparent Declination
-39° 11' 32"
Sunlit
Object is in daylight
Visualization observer readout
Local Sidereal Time
13:58:38
Azimuth
275.67° WNW
Elevation
-84.7°
Doppler factor
1
Orbital elements
Apogee altitude
548.236 km
Perigee altitude
546.778 km
Semi-major axis
6,925.644 km
Eccentricity
0.00011
Inclination
53.0537°
RAAN
189.8214°
Arg. of periapsis
75.1578°
True anomaly
Unknown
Mean anomaly
284.9528°
Eccentric anomaly
Unknown
Mean motion
3.76576 °/min
Orbital period
95.6 mins
BSTAR
-0.000028136
Loading maneuver chart data...
Loading SW <> Apogee altitude chart data...
Loading historical data...
Loading historical data...
Loading historical data...
Loading historical data...
Loading historical data...
Loading historical data...
Loading historical data...

STARLINK-1265 Visibility forecast

Observer location: undefined°, undefined°

Span
Click to sort rows by Start time (UTC) header in descending order
Start Az.
Max El. time (UTC)
Max El. Az.
Max El.
End time (UTC)
End Az.
8 mins2025-07-01 03:05:31.666Z221.079° SW2025-07-01 03:09:31.666Z130.631° SE43.441°2025-07-01 03:13:31.666Z54.027° ENE
5 mins2025-07-01 04:47:31.666Z298.752° NW2025-07-01 04:49:31.666Z340.527° N21.941°2025-07-01 04:52:31.666Z29.61° NE
4 mins2025-07-01 08:09:31.666Z353.285° N2025-07-01 08:10:31.666Z11.425° NNE17.657°2025-07-01 08:13:31.666Z61.606° ENE
6 mins2025-07-01 09:48:31.666Z317.587° NNW2025-07-01 09:50:31.666Z349.734° N41.384°2025-07-01 09:54:31.666Z121.551° SE
|